Location: Hackbridge
(51.3833°N, 0.1500°W)
Time: 21:26:29
(UTC+00:00)

Lacrosse 5 - Pass Details

Date: 13 October 2019
Orbit: 715 x 724 km, 57.0° (Epoch: 12 November)

Event Time Altitude Azimuth Distance (km) Brightness Sun altitude
Rises 20:11:56 0° 299° (WNW) 3,125 6.4 -28.2°
Reaches altitude 10° 20:14:19 10° 300° (WNW) 2,203 5.3 -28.6°
Enters shadow 20:18:26 59° 297° (WNW) 824 2.3 -29.2°
